Time,TemperatureF,DewpointF,PressureIn,WindDirection,WindDirectionDegrees,WindSpeedMPH,WindSpeedGustMPH,Humidity,HourlyPrecipIn,Conditions,Clouds,dailyrainin,SolarRadiationWatts/m^2,SoftwareType,DateUTC
2013-02-03 00:10:00,18.1,12.0,30.14,WNW,296,1.0,10.0,76,0.00,,,0.00,0,weatherlink.com 1.10,2013-02-03 05:10:00,
2013-02-03 00:25:00,17.6,11.0,30.13,WSW,258,6.0,8.0,74,0.00,,,0.00,0,weatherlink.com 1.10,2013-02-03 05:25:00,
2013-02-03 00:40:00,17.1,10.0,30.13,West,281,0.0,6.0,75,0.00,,,0.00,0,weatherlink.com 1.10,2013-02-03 05:40:00,
2013-02-03 00:55:00,16.8,10.0,30.12,WNW,282,2.0,4.0,75,0.00,,,0.00,0,weatherlink.com 1.10,2013-02-03 05:55:00,
2013-02-03 01:10:00,16.2,10.0,30.11,WNW,282,0.0,1.0,75,0.00,,,0.00,0,weatherlink.com 1.10,2013-02-03 06:10:00,
2013-02-03 01:25:00,15.7,9.0,30.11,WNW,282,0.0,4.0,76,0.00,,,0.00,0,weatherlink.com 1.10,2013-02-03 06:25:00,
2013-02-03 01:40:00,15.0,9.0,30.09,WNW,282,0.0,0.0,76,0.00,,,0.00,0,weatherlink.com 1.10,2013-02-03 06:40:00,
2013-02-03 01:55:00,14.6,9.0,30.09,WNW,282,0.0,1.0,78,0.00,,,0.00,0,weatherlink.com 1.10,2013-02-03 06:55:00,
2013-02-03 02:10:00,14.7,9.0,30.09,WNW,282,1.0,2.0,78,0.00,,,0.00,0,weatherlink.com 1.10,2013-02-03 07:10:00,
2013-02-03 02:26:00,14.7,8.0,30.08,WNW,282,0.0,2.0,76,0.00,,,0.00,0,weatherlink.com 1.10,2013-02-03 07:26:00,
2013-02-03 02:40:00,14.1,8.0,30.08,WNW,282,0.0,0.0,77,0.00,,,0.00,0,weatherlink.com 1.10,2013-02-03 07:40:00,
2013-02-03 02:55:00,13.7,8.0,30.08,WNW,282,0.0,0.0,78,0.00,,,0.00,0,weatherlink.com 1.10,2013-02-03 07:55:00,
2013-02-03 03:11:00,13.4,8.0,30.07,WNW,282,0.0,1.0,79,0.00,,,0.00,0,weatherlink.com 1.10,2013-02-03 08:11:00,
2013-02-03 03:25:00,13.3,8.0,30.08,WNW,282,0.0,1.0,79,0.00,,,0.00,0,weatherlink.com 1.10,2013-02-03 08:25:00,
2013-02-03 03:41:00,13.4,8.0,30.07,WNW,282,0.0,0.0,80,0.00,,,0.00,0,weatherlink.com 1.10,2013-02-03 08:41:00,
2013-02-03 03:55:00,13.8,8.0,30.06,WNW,282,0.0,0.0,79,0.00,,,0.00,0,weatherlink.com 1.10,2013-02-03 08:55:00,
2013-02-03 04:11:00,14.1,10.0,30.05,WNW,282,0.0,0.0,82,0.00,,,0.00,0,weatherlink.com 1.10,2013-02-03 09:11:00,
2013-02-03 04:26:00,14.5,10.0,30.05,WNW,282,0.0,0.0,81,0.00,,,0.00,0,weatherlink.com 1.10,2013-02-03 09:26:00,
2013-02-03 04:41:00,14.8,10.0,30.04,WNW,282,0.0,2.0,81,0.00,,,0.00,0,weatherlink.com 1.10,2013-02-03 09:41:00,
2013-02-03 04:56:00,15.0,10.0,30.04,WNW,282,0.0,1.0,81,0.00,,,0.00,0,weatherlink.com 1.10,2013-02-03 09:56:00,
2013-02-03 05:11:00,15.1,10.0,30.04,WNW,282,1.0,2.0,81,0.00,,,0.00,0,weatherlink.com 1.10,2013-02-03 10:11:00,
2013-02-03 05:26:00,15.1,11.0,30.05,WNW,282,1.0,4.0,82,0.00,,,0.00,0,weatherlink.com 1.10,2013-02-03 10:26:00,
2013-02-03 05:41:00,15.0,11.0,30.05,WNW,282,1.0,4.0,83,0.00,,,0.00,0,weatherlink.com 1.10,2013-02-03 10:41:00,
2013-02-03 05:56:00,15.0,11.0,30.05,SW,232,1.0,5.0,85,0.00,,,0.00,0,weatherlink.com 1.10,2013-02-03 10:56:00,
2013-02-03 06:11:00,15.2,12.0,30.05,SW,236,0.0,4.0,85,0.00,,,0.00,0,weatherlink.com 1.10,2013-02-03 11:11:00,
2013-02-03 06:26:00,15.2,12.0,30.06,SW,236,0.0,4.0,85,0.00,,,0.00,0,weatherlink.com 1.10,2013-02-03 11:26:00,
2013-02-03 06:41:00,15.2,12.0,30.05,SW,236,0.0,5.0,85,0.00,,,0.00,0,weatherlink.com 1.10,2013-02-03 11:41:00,
2013-02-03 06:56:00,15.2,12.0,30.05,SW,236,0.0,4.0,86,0.00,,,0.00,0,weatherlink.com 1.10,2013-02-03 11:56:00,
2013-02-03 07:11:00,15.3,12.0,30.05,SW,236,0.0,4.0,86,0.00,,,0.00,0,weatherlink.com 1.10,2013-02-03 12:11:00,
2013-02-03 07:26:00,15.4,12.0,30.05,SW,236,0.0,1.0,87,0.00,,,0.00,0,weatherlink.com 1.10,2013-02-03 12:26:00,
2013-02-03 07:41:00,15.5,12.0,30.05,SW,236,0.0,2.0,87,0.00,,,0.00,0,weatherlink.com 1.10,2013-02-03 12:41:00,
2013-02-03 07:56:00,15.6,12.0,30.06,SW,236,0.0,1.0,87,0.00,,,0.00,0,weatherlink.com 1.10,2013-02-03 12:56:00,
2013-02-03 08:11:00,15.7,13.0,30.06,SW,236,1.0,4.0,88,0.00,,,0.00,5,weatherlink.com 1.10,2013-02-03 13:11:00,
2013-02-03 08:26:00,15.9,13.0,30.06,SW,236,0.0,1.0,88,0.00,,,0.00,14,weatherlink.com 1.10,2013-02-03 13:26:00,
2013-02-03 08:41:00,16.1,14.0,30.07,SW,236,0.0,2.0,89,0.00,,,0.00,14,weatherlink.com 1.10,2013-02-03 13:41:00,
2013-02-03 08:56:00,16.3,14.0,30.06,SW,236,0.0,2.0,89,0.00,,,0.00,33,weatherlink.com 1.10,2013-02-03 13:56:00,
2013-02-03 09:11:00,16.7,14.0,30.06,SW,236,0.0,0.0,90,0.00,,,0.00,42,weatherlink.com 1.10,2013-02-03 14:11:00,
2013-02-03 09:26:00,17.2,15.0,30.06,SW,236,0.0,0.0,90,0.00,,,0.00,51,weatherlink.com 1.10,2013-02-03 14:26:00,
2013-02-03 09:41:00,17.6,15.0,30.06,SW,236,0.0,4.0,90,0.00,,,0.00,56,weatherlink.com 1.10,2013-02-03 14:41:00,
2013-02-03 09:56:00,17.9,16.0,30.06,SW,236,1.0,4.0,90,0.00,,,0.00,58,weatherlink.com 1.10,2013-02-03 14:56:00,
2013-02-03 10:11:00,18.1,16.0,30.06,SW,236,0.0,1.0,91,0.00,,,0.00,84,weatherlink.com 1.10,2013-02-03 15:11:00,
2013-02-03 10:26:00,18.4,16.0,30.06,SW,236,0.0,4.0,91,0.00,,,0.00,84,weatherlink.com 1.10,2013-02-03 15:26:00,
2013-02-03 10:41:00,18.8,17.0,30.07,SW,236,0.0,4.0,91,0.00,,,0.00,84,weatherlink.com 1.10,2013-02-03 15:41:00,
2013-02-03 10:56:00,18.8,17.0,30.07,SW,236,5.0,7.0,91,0.00,,,0.00,90,weatherlink.com 1.10,2013-02-03 15:56:00,
2013-02-03 11:11:00,19.0,17.0,30.08,SW,236,1.0,4.0,91,0.00,,,0.00,84,weatherlink.com 1.10,2013-02-03 16:11:00,
2013-02-03 11:26:00,19.0,17.0,30.09,West,262,2.0,7.0,91,0.00,,,0.00,86,weatherlink.com 1.10,2013-02-03 16:26:00,
2013-02-03 11:41:00,19.4,17.0,30.09,SSW,200,2.0,8.0,91,0.00,,,0.00,137,weatherlink.com 1.10,2013-02-03 16:41:00,
2013-02-03 12:12:00,20.2,18.0,30.10,WSW,242,7.0,11.0,91,0.00,,,0.00,91,weatherlink.com 1.10,2013-02-03 17:12:00,
2013-02-03 12:27:00,20.4,18.0,30.11,SW,223,9.0,10.0,91,0.00,,,0.00,95,weatherlink.com 1.10,2013-02-03 17:27:00,
2013-02-03 12:41:00,20.8,19.0,30.10,SW,236,3.0,9.0,91,0.00,,,0.00,120,weatherlink.com 1.10,2013-02-03 17:41:00,
2013-02-03 12:57:00,21.4,19.0,30.10,West,278,7.0,7.0,91,0.00,,,0.00,123,weatherlink.com 1.10,2013-02-03 17:57:00,
2013-02-03 13:12:00,21.9,20.0,30.09,WSW,252,4.0,10.0,91,0.00,,,0.00,113,weatherlink.com 1.10,2013-02-03 18:12:00,
2013-02-03 13:27:00,22.5,20.0,30.10,WSW,242,5.0,10.0,91,0.00,,,0.00,120,weatherlink.com 1.10,2013-02-03 18:27:00,
2013-02-03 13:42:00,23.1,20.0,30.11,WSW,248,6.0,10.0,89,0.00,,,0.00,90,weatherlink.com 1.10,2013-02-03 18:42:00,
2013-02-03 13:57:00,23.7,20.0,30.11,SW,236,5.0,9.0,87,0.00,,,0.00,67,weatherlink.com 1.10,2013-02-03 18:57:00,
2013-02-03 14:12:00,24.1,21.0,30.11,SW,220,6.0,9.0,86,0.00,,,0.00,107,weatherlink.com 1.10,2013-02-03 19:12:00,
2013-02-03 14:27:00,24.5,21.0,30.12,WSW,239,6.0,11.0,86,0.00,,,0.00,121,weatherlink.com 1.10,2013-02-03 19:27:00,
2013-02-03 14:42:00,24.8,21.0,30.11,West,273,2.0,10.0,85,0.00,,,0.00,162,weatherlink.com 1.10,2013-02-03 19:42:00,
2013-02-03 14:57:00,25.3,20.0,30.12,West,275,7.0,14.0,80,0.00,,,0.00,174,weatherlink.com 1.10,2013-02-03 19:57:00,
2013-02-03 15:12:00,26.2,20.0,30.12,NNW,340,5.0,13.0,77,0.00,,,0.00,364,weatherlink.com 1.10,2013-02-03 20:12:00,
2013-02-03 15:27:00,26.7,19.0,30.13,North,360,4.0,13.0,73,0.00,,,0.00,211,weatherlink.com 1.10,2013-02-03 20:27:00,
2013-02-03 15:42:00,26.3,19.0,30.14,WNW,285,2.0,14.0,73,0.00,,,0.00,107,weatherlink.com 1.10,2013-02-03 20:42:00,
2013-02-03 15:57:00,25.3,20.0,30.15,NW,319,4.0,15.0,79,0.00,,,0.00,84,weatherlink.com 1.10,2013-02-03 20:57:00,
2013-02-03 16:12:00,24.7,21.0,30.15,NW,311,5.0,11.0,84,0.00,,,0.00,141,weatherlink.com 1.10,2013-02-03 21:12:00,
2013-02-03 16:27:00,24.5,20.0,30.16,WSW,254,7.0,15.0,84,0.00,,,0.00,104,weatherlink.com 1.10,2013-02-03 21:27:00,
2013-02-03 16:42:00,24.9,20.0,30.16,SW,232,4.0,10.0,83,0.00,,,0.00,218,weatherlink.com 1.10,2013-02-03 21:42:00,
2013-02-03 16:57:00,24.7,20.0,30.16,West,267,4.0,10.0,82,0.00,,,0.00,44,weatherlink.com 1.10,2013-02-03 21:57:00,
2013-02-03 17:27:00,25.1,18.0,30.16,WSW,250,2.0,15.0,74,0.00,,,0.00,62,weatherlink.com 1.10,2013-02-03 22:27:00,
2013-02-03 17:42:00,25.1,17.0,30.17,WNW,283,5.0,10.0,72,0.00,,,0.00,30,weatherlink.com 1.10,2013-02-03 22:42:00,
2013-02-03 17:57:00,24.5,16.0,30.18,WNW,296,1.0,9.0,71,0.00,,,0.00,14,weatherlink.com 1.10,2013-02-03 22:57:00,
2013-02-03 18:13:00,24.0,16.0,30.17,WNW,289,1.0,8.0,71,0.00,,,0.00,0,weatherlink.com 1.10,2013-02-03 23:13:00,
2013-02-03 18:28:00,23.5,16.0,30.18,WNW,285,0.0,7.0,72,0.00,,,0.00,0,weatherlink.com 1.10,2013-02-03 23:28:00,
2013-02-03 18:42:00,23.1,16.0,30.18,West,268,2.0,6.0,73,0.00,,,0.00,0,weatherlink.com 1.10,2013-02-03 23:42:00,
2013-02-03 18:57:00,22.8,15.0,30.18,West,264,1.0,5.0,73,0.00,,,0.00,0,weatherlink.com 1.10,2013-02-03 23:57:00,
2013-02-03 19:12:00,22.3,15.0,30.18,WSW,252,1.0,5.0,73,0.00,,,0.00,0,weatherlink.com 1.10,2013-02-04 00:12:00,
2013-02-03 19:27:00,21.6,15.0,30.18,WNW,284,1.0,5.0,75,0.00,,,0.00,0,weatherlink.com 1.10,2013-02-04 00:27:00,
2013-02-03 19:43:00,21.4,15.0,30.18,WNW,284,0.0,2.0,75,0.00,,,0.00,0,weatherlink.com 1.10,2013-02-04 00:43:00,
2013-02-03 19:57:00,20.8,14.0,30.18,WNW,284,0.0,2.0,76,0.00,,,0.00,0,weatherlink.com 1.10,2013-02-04 00:57:00,
2013-02-03 20:12:00,20.4,14.0,30.18,SW,229,1.0,4.0,77,0.00,,,0.00,0,weatherlink.com 1.10,2013-02-04 01:12:00,
2013-02-03 20:27:00,20.0,14.0,30.18,SW,229,0.0,0.0,77,0.00,,,0.00,0,weatherlink.com 1.10,2013-02-04 01:27:00,
2013-02-03 20:43:00,20.0,14.0,30.18,SW,229,0.0,1.0,78,0.00,,,0.00,0,weatherlink.com 1.10,2013-02-04 01:43:00,
2013-02-03 20:57:00,19.9,14.0,30.18,SW,229,0.0,1.0,78,0.00,,,0.00,0,weatherlink.com 1.10,2013-02-04 01:57:00,
2013-02-03 21:13:00,19.8,14.0,30.19,SW,229,0.0,2.0,79,0.00,,,0.00,0,weatherlink.com 1.10,2013-02-04 02:13:00,
2013-02-03 21:28:00,19.7,14.0,30.19,SW,229,0.0,2.0,79,0.00,,,0.00,0,weatherlink.com 1.10,2013-02-04 02:28:00,
2013-02-03 21:42:00,19.7,14.0,30.19,SW,229,0.0,2.0,79,0.00,,,0.00,0,weatherlink.com 1.10,2013-02-04 02:42:00,
2013-02-03 21:58:00,19.6,14.0,30.19,SW,229,0.0,4.0,79,0.00,,,0.00,0,weatherlink.com 1.10,2013-02-04 02:58:00,
2013-02-03 22:12:00,19.8,14.0,30.18,SW,229,0.0,1.0,79,0.00,,,0.00,0,weatherlink.com 1.10,2013-02-04 03:12:00,
2013-02-03 22:27:00,20.0,14.0,30.18,SW,229,0.0,1.0,78,0.00,,,0.00,0,weatherlink.com 1.10,2013-02-04 03:27:00,
2013-02-03 22:42:00,20.4,14.0,30.18,SW,229,0.0,0.0,77,0.00,,,0.00,0,weatherlink.com 1.10,2013-02-04 03:42:00,
2013-02-03 22:57:00,20.6,14.0,30.18,SW,229,0.0,1.0,77,0.00,,,0.00,0,weatherlink.com 1.10,2013-02-04 03:57:00,
2013-02-03 23:12:00,20.8,15.0,30.17,SW,229,0.0,1.0,77,0.00,,,0.00,0,weatherlink.com 1.10,2013-02-04 04:12:00,
2013-02-03 23:28:00,21.0,14.0,30.18,SW,229,0.0,2.0,75,0.00,,,0.00,0,weatherlink.com 1.10,2013-02-04 04:28:00,
2013-02-03 23:42:00,20.3,14.0,30.17,SW,229,0.0,0.0,75,0.00,,,0.00,0,weatherlink.com 1.10,2013-02-04 04:42:00,
2013-02-03 23:58:00,19.5,13.0,30.17,SW,229,0.0,2.0,76,0.00,,,0.00,0,weatherlink.com 1.10,2013-02-04 04:58:00,